| time (UTC) | temp F | wind direction | speed knots | gust knots | rain 1hr in | rain 24hr in | rain mn in | humidity % | barometer mb |
| 20260504151003 | 64 | 215 | 3.5 | 16.5 | 0.00 | 0.04 | 0.00 | 66 | 1005.3 |
| 20260504150503 | 64 | 215 | 3.5 | 16.5 | 0.00 | 0.04 | 0.00 | 66 | 1005.4 |
| 20260504150216 | 64 | 215 | 3.5 | 16.5 | 0.00 | 0.04 | 0.00 | 66 | 1005.7 |
| 20260504141216 | 64 | 215 | 3.5 | 16.5 | 0.00 | 0.04 | 0.00 | 66 | 1005.8 |
| 20260504140503 | 64 | 215 | 3.5 | 16.5 | 0.00 | 0.04 | 0.00 | 66 | 1005.7 |
| 20260504130503 | 64 | 215 | 3.5 | 16.5 | 0.00 | 0.04 | 0.00 | 66 | 1006.5 |
| 20260504120213 | 64 | 215 | 3.5 | 16.5 | 0.00 | 0.04 | 0.00 | 66 | 1006.7 |
| 20260504110503 | 64 | 215 | 3.5 | 16.5 | 0.00 | 0.04 | 0.00 | 66 | 1006.6 |
| 20260504110214 | 64 | 215 | 3.5 | 16.5 | 0.00 | 0.04 | 0.00 | 66 | 1006.6 |
| 20260504081503 | 59 | 126 | 0.9 | 5.2 | 0.00 | 0.04 | 0.00 | 87 | 1006.6 |
| 20260504081215 | 59 | 126 | 0.9 | 5.2 | 0.00 | 0.04 | 0.00 | 86 | 1006.7 |
| 20260504080503 | 60 | 0 | 0.0 | 0.0 | 0.00 | 0.04 | 0.00 | 85 | 1006.9 |
| 20260504080216 | 60 | 0 | 0.0 | 0.0 | 0.00 | 0.04 | 0.00 | 85 | 1006.9 |
| 20260504060217 | 64 | 0 | 0.0 | 0.0 | 0.00 | 0.04 | 0.00 | 73 | 1007.6 |
| 20260504050715 | 60 | 0 | 0.0 | 0.0 | 0.00 | 0.04 | 0.00 | 90 | 1007.1 |
| 20260504050223 | 60 | 0 | 0.0 | 0.0 | 0.00 | 0.04 | 0.00 | 90 | 1007.1 |
| 20260504045715 | 60 | 0 | 0.0 | 0.0 | 0.00 | 0.04 | 0.04 | 90 | 1007.1 |
| 20260504045003 | 60 | 0 | 0.0 | 0.0 | 0.01 | 0.04 | 0.04 | 90 | 1006.9 |
| 20260504044716 | 60 | 0 | 0.0 | 0.0 | 0.01 | 0.04 | 0.04 | 89 | 1006.8 |
| 20260504044003 | 60 | 0 | 0.0 | 0.0 | 0.04 | 0.04 | 0.04 | 88 | 1006.6 |
| 20260504043712 | 60 | 0 | 0.0 | 0.0 | 0.04 | 0.04 | 0.04 | 88 | 1006.7 |
| 20260504043003 | 60 | 0 | 0.0 | 0.0 | 0.04 | 0.04 | 0.04 | 87 | 1006.8 |
| 20260504042503 | 60 | 0 | 0.0 | 0.0 | 0.04 | 0.04 | 0.04 | 86 | 1006.9 |
| 20260504042003 | 61 | 0 | 0.0 | 0.0 | 0.04 | 0.04 | 0.04 | 86 | 1007.1 |
| 20260504041503 | 62 | 0 | 0.0 | 0.0 | 0.04 | 0.04 | 0.04 | 85 | 1007.2 |
| 20260504041003 | 62 | 0 | 0.0 | 0.0 | 0.04 | 0.04 | 0.04 | 83 | 1007.4 |
| 20260504040715 | 62 | 0 | 0.0 | 0.0 | 0.04 | 0.04 | 0.04 | 82 | 1007.6 |
| 20260504040213 | 63 | 0 | 0.0 | 0.0 | 0.04 | 0.04 | 0.04 | 80 | 1007.7 |
| 20260504035716 | 63 | 0 | 0.0 | 0.0 | 0.04 | 0.04 | 0.04 | 78 | 1007.7 |
| 20260504035004 | 65 | 0 | 0.0 | 0.0 | 0.03 | 0.03 | 0.03 | 74 | 1008.0 |
| 20260504034503 | 67 | 0 | 0.0 | 0.0 | 0.03 | 0.03 | 0.03 | 69 | 1008.6 |
| 20260504034003 | 68 | 0 | 0.0 | 0.0 | 0.00 | 0.00 | 0.00 | 64 | 1008.3 |
| 20260504033503 | 68 | 0 | 0.0 | 0.0 | 0.00 | 0.00 | 0.00 | 63 | 1007.3 |
| 20260504033216 | 68 | 0 | 0.0 | 0.0 | 0.00 | 0.00 | 0.00 | 67 | 1007.4 |
| 20260504032714 | 68 | 0 | 0.0 | 0.0 | 0.00 | 0.00 | 0.00 | 68 | 1007.6 |
| 20260504032217 | 68 | 242 | 0.0 | 0.9 | 0.00 | 0.00 | 0.00 | 67 | 1007.7 |
| 20260504031503 | 67 | 242 | 0.0 | 0.9 | 0.00 | 0.00 | 0.00 | 67 | 1007.8 |
| 20260504031213 | 67 | 0 | 0.0 | 0.0 | 0.00 | 0.00 | 0.00 | 67 | 1007.8 |
| 20260504030716 | 67 | 0 | 0.0 | 0.0 | 0.00 | 0.00 | 0.00 | 68 | 1007.8 |
| 20260504030003 | 68 | 0 | 0.0 | 0.0 | 0.00 | 0.00 | 0.00 | 72 | 1007.7 |
| 20260504025717 | 68 | 0 | 0.0 | 0.0 | 0.00 | 0.00 | 0.00 | 71 | 1007.8 |
| 20260504025003 | 68 | 0 | 0.0 | 0.0 | 0.00 | 0.00 | 0.00 | 69 | 1007.7 |
| 20260504024713 | 68 | 0 | 0.0 | 0.0 | 0.00 | 0.00 | 0.00 | 63 | 1007.7 |
| 20260504024216 | 68 | 0 | 0.0 | 0.0 | 0.00 | 0.00 | 0.00 | 65 | 1007.7 |
| 20260504023503 | 68 | 0 | 0.0 | 0.0 | 0.00 | 0.00 | 0.00 | 68 | 1007.8 |
| 20260504023217 | 68 | 0 | 0.0 | 0.0 | 0.00 | 0.00 | 0.00 | 67 | 1007.7 |
| 20260504022714 | 69 | 0 | 0.0 | 0.0 | 0.00 | 0.00 | 0.00 | 65 | 1007.7 |
| 20260504022003 | 69 | 0 | 0.0 | 0.0 | 0.00 | 0.00 | 0.00 | 57 | 1007.6 |
| 20260504021715 | 69 | 0 | 0.0 | 0.0 | 0.00 | 0.00 | 0.00 | 59 | 1007.6 |
| 20260504021003 | 70 | 0 | 0.0 | 0.0 | 0.00 | 0.00 | 0.00 | 64 | 1007.6 |
| 20260504020503 | 70 | 0 | 0.0 | 0.0 | 0.00 | 0.00 | 0.00 | 63 | 1007.6 |
| 20260504020214 | 70 | 0 | 0.0 | 0.0 | 0.00 | 0.00 | 0.00 | 60 | 1007.6 |
| 20260504015717 | 71 | 0 | 0.0 | 0.0 | 0.00 | 0.00 | 0.00 | 55 | 1007.6 |
| 20260504015003 | 71 | 0 | 0.0 | 0.0 | 0.00 | 0.00 | 0.00 | 52 | 1007.6 |
| 20260504014713 | 71 | 0 | 0.0 | 0.0 | 0.00 | 0.00 | 0.00 | 51 | 1007.5 |
| 20260504014003 | 71 | 0 | 0.0 | 0.0 | 0.00 | 0.00 | 0.00 | 50 | 1007.5 |
| 20260504013714 | 71 | 0 | 0.0 | 0.0 | 0.00 | 0.00 | 0.00 | 51 | 1007.5 |
| 20260504013217 | 70 | 0 | 0.0 | 0.0 | 0.00 | 0.00 | 0.00 | 52 | 1007.5 |
| 20260504012503 | 71 | 0 | 0.0 | 0.0 | 0.00 | 0.00 | 0.00 | 54 | 1007.4 |
| 20260504012213 | 71 | 0 | 0.0 | 0.0 | 0.00 | 0.00 | 0.00 | 55 | 1007.4 |
| 20260504011716 | 71 | 0 | 0.0 | 0.0 | 0.00 | 0.00 | 0.00 | 57 | 1007.5 |
| 20260504011214 | 71 | 0 | 0.0 | 0.0 | 0.00 | 0.00 | 0.00 | 57 | 1007.4 |
| 20260504010717 | 72 | 0 | 0.0 | 0.0 | 0.00 | 0.00 | 0.00 | 56 | 1007.3 |
| 20260504010215 | 73 | 0 | 0.0 | 0.0 | 0.00 | 0.00 | 0.00 | 56 | 1007.2 |
| 20260504005713 | 74 | 0 | 0.0 | 0.0 | 0.00 | 0.00 | 0.00 | 51 | 1007.2 |
| 20260504005004 | 75 | 0 | 0.0 | 0.0 | 0.00 | 0.00 | 0.00 | 45 | 1007.0 |
| 20260504004503 | 75 | 0 | 0.0 | 0.0 | 0.00 | 0.00 | 0.00 | 43 | 1007.0 |
| 20260504004003 | 75 | 0 | 0.0 | 0.0 | 0.00 | 0.00 | 0.00 | 43 | 1006.9 |
| 20260504003503 | 75 | 0 | 0.0 | 0.0 | 0.00 | 0.00 | 0.00 | 42 | 1007.0 |
| 20260504003003 | 75 | 0 | 0.0 | 0.0 | 0.00 | 0.00 | 0.00 | 42 | 1007.0 |
| 20260504002503 | 75 | 0 | 0.0 | 0.0 | 0.00 | 0.00 | 0.00 | 42 | 1007.0 |
| 20260504002003 | 75 | 0 | 0.0 | 0.0 | 0.00 | 0.00 | 0.00 | 42 | 1007.0 |
| 20260504001717 | 75 | 0 | 0.0 | 0.0 | 0.00 | 0.00 | 0.00 | 42 | 1007.1 |
| 20260504001003 | 76 | 0 | 0.0 | 0.0 | 0.00 | 0.00 | 0.00 | 42 | 1007.1 |
| 20260504000713 | 76 | 0 | 0.0 | 0.0 | 0.00 | 0.00 | 0.00 | 42 | 1007.1 |
| 20260504000003 | 76 | 0 | 0.0 | 0.0 | 0.00 | 0.00 | 0.00 | 42 | 1007.1 |
| 20260503235503 | 76 | 0 | 0.0 | 0.0 | 0.00 | 0.00 | 0.00 | 42 | 1007.1 |
| 20260503235003 | 76 | 0 | 0.0 | 0.0 | 0.00 | 0.00 | 0.00 | 42 | 1007.0 |
| 20260503234714 | 76 | 0 | 0.0 | 0.0 | 0.00 | 0.00 | 0.00 | 41 | 1007.1 |
| 20260503234003 | 76 | 0 | 0.0 | 0.0 | 0.00 | 0.00 | 0.00 | 41 | 1007.2 |
| 20260503233503 | 77 | 0 | 0.0 | 0.0 | 0.00 | 0.00 | 0.00 | 40 | 1007.3 |
| 20260503233003 | 77 | 0 | 0.0 | 0.0 | 0.00 | 0.00 | 0.00 | 40 | 1007.2 |
| 20260503232503 | 77 | 263 | 0.0 | 0.9 | 0.00 | 0.00 | 0.00 | 40 | 1007.2 |
| 20260503232214 | 77 | 241 | 3.5 | 33.9 | 0.00 | 0.00 | 0.00 | 40 | 1007.2 |
| 20260503231712 | 77 | 242 | 3.5 | 33.9 | 0.00 | 0.00 | 0.00 | 39 | 1007.4 |
| 20260503231003 | 78 | 0 | 0.0 | 0.0 | 0.00 | 0.00 | 0.00 | 39 | 1007.4 |
| 20260503230713 | 78 | 0 | 0.0 | 0.0 | 0.00 | 0.00 | 0.00 | 38 | 1007.4 |
| 20260503230216 | 78 | 0 | 0.0 | 0.0 | 0.00 | 0.00 | 0.00 | 39 | 1007.5 |
| 20260503225503 | 78 | 0 | 0.0 | 0.0 | 0.00 | 0.00 | 0.00 | 38 | 1007.5 |
| 20260503225003 | 78 | 0 | 0.0 | 0.0 | 0.00 | 0.00 | 0.00 | 37 | 1007.6 |
| 20260503224715 | 78 | 0 | 0.0 | 0.0 | 0.00 | 0.00 | 0.00 | 37 | 1007.5 |
| 20260503224003 | 78 | 0 | 0.0 | 0.0 | 0.00 | 0.00 | 0.00 | 37 | 1007.6 |
| 20260503223716 | 78 | 0 | 0.0 | 0.0 | 0.00 | 0.00 | 0.00 | 38 | 1007.6 |
| 20260503223003 | 78 | 0 | 0.0 | 0.0 | 0.00 | 0.00 | 0.00 | 37 | 1007.6 |
| 20260503222717 | 78 | 0 | 0.0 | 0.0 | 0.00 | 0.00 | 0.00 | 37 | 1007.6 |
| 20260503222215 | 78 | 0 | 0.0 | 0.0 | 0.00 | 0.00 | 0.00 | 37 | 1007.7 |
| 20260503221503 | 78 | 0 | 0.0 | 0.0 | 0.00 | 0.00 | 0.00 | 37 | 1007.8 |
| 20260503221003 | 78 | 0 | 0.0 | 0.0 | 0.00 | 0.00 | 0.00 | 38 | 1007.7 |
| 20260503220714 | 78 | 0 | 0.0 | 0.0 | 0.00 | 0.00 | 0.00 | 36 | 1007.8 |
| 20260503220217 | 77 | 0 | 0.0 | 0.0 | 0.00 | 0.00 | 0.00 | 36 | 1007.9 |
| 20260503215503 | 77 | 0 | 0.0 | 0.0 | 0.00 | 0.00 | 0.00 | 37 | 1008.0 |
| 20260503215213 | 77 | 0 | 0.0 | 0.0 | 0.00 | 0.00 | 0.00 | 36 | 1008.1 |
| 20260503214503 | 78 | 0 | 0.0 | 0.0 | 0.00 | 0.00 | 0.00 | 36 | 1008.1 |
| 20260503214003 | 78 | 0 | 0.0 | 0.0 | 0.00 | 0.00 | 0.00 | 36 | 1008.1 |
| 20260503213717 | 78 | 0 | 0.0 | 0.0 | 0.00 | 0.00 | 0.00 | 36 | 1008.3 |
| 20260503213003 | 77 | 217 | 0.0 | 2.6 | 0.00 | 0.00 | 0.00 | 36 | 1008.5 |
| 20260503212713 | 77 | 217 | 0.0 | 2.6 | 0.00 | 0.00 | 0.00 | 36 | 1008.5 |
| 20260503212003 | 77 | 0 | 0.0 | 0.0 | 0.00 | 0.00 | 0.00 | 36 | 1008.5 |
| 20260503211503 | 77 | 0 | 0.0 | 0.0 | 0.00 | 0.00 | 0.00 | 37 | 1008.6 |
| 20260503211003 | 76 | 0 | 0.0 | 0.0 | 0.00 | 0.00 | 0.00 | 36 | 1008.7 |
| 20260503210503 | 76 | 254 | 0.0 | 5.2 | 0.00 | 0.00 | 0.00 | 37 | 1008.8 |
| 20260503210218 | 76 | 254 | 0.0 | 5.2 | 0.00 | 0.00 | 0.00 | 36 | 1008.8 |
| 20260503205503 | 76 | 211 | 8.7 | 44.3 | 0.00 | 0.00 | 0.00 | 37 | 1008.8 |
| 20260503205213 | 76 | 213 | 12.2 | 44.3 | 0.00 | 0.00 | 0.00 | 37 | 1008.9 |
| 20260503204716 | 76 | 222 | 11.3 | 36.5 | 0.00 | 0.00 | 0.00 | 37 | 1008.9 |
| 20260503204214 | 76 | 222 | 11.3 | 35.6 | 0.00 | 0.00 | 0.00 | 37 | 1008.9 |
| 20260503203503 | 75 | 216 | 9.6 | 29.5 | 0.00 | 0.00 | 0.00 | 37 | 1008.9 |
| 20260503203003 | 75 | 219 | 10.4 | 25.2 | 0.00 | 0.00 | 0.00 | 39 | 1009.0 |
| 20260503202713 | 75 | 221 | 13.0 | 25.2 | 0.00 | 0.00 | 0.00 | 38 | 1009.2 |
| 20260503202003 | 75 | 218 | 13.0 | 29.5 | 0.00 | 0.00 | 0.00 | 37 | 1009.4 |
| 20260503201503 | 75 | 220 | 10.4 | 24.3 | 0.00 | 0.00 | 0.00 | 38 | 1009.4 |
| 20260503201003 | 74 | 227 | 12.2 | 33.9 | 0.00 | 0.00 | 0.00 | 38 | 1009.5 |
| 20260503200715 | 74 | 228 | 13.9 | 33.9 | 0.00 | 0.00 | 0.00 | 37 | 1009.6 |
| 20260503200213 | 74 | 225 | 12.2 | 33.9 | 0.00 | 0.00 | 0.00 | 38 | 1009.8 |
| 20260503195503 | 74 | 225 | 9.6 | 27.8 | 0.00 | 0.00 | 0.00 | 36 | 1009.9 |
| 20260503195214 | 74 | 230 | 9.6 | 23.5 | 0.00 | 0.00 | 0.00 | 38 | 1010.0 |
| 20260503194717 | 74 | 229 | 12.2 | 27.8 | 0.00 | 0.00 | 0.00 | 38 | 1010.2 |
| 20260503194003 | 73 | 217 | 10.4 | 36.5 | 0.00 | 0.00 | 0.00 | 39 | 1010.4 |
| 20260503193713 | 73 | 215 | 9.6 | 36.5 | 0.00 | 0.00 | 0.00 | 41 | 1010.4 |
| 20260503193216 | 73 | 218 | 10.4 | 25.2 | 0.00 | 0.00 | 0.00 | 38 | 1010.6 |
| 20260503192714 | 73 | 220 | 11.3 | 25.2 | 0.00 | 0.00 | 0.00 | 39 | 1010.8 |
| 20260503192003 | 72 | 221 | 10.4 | 26.1 | 0.00 | 0.00 | 0.00 | 37 | 1010.9 |
| 20260503191503 | 72 | 219 | 11.3 | 26.1 | 0.00 | 0.00 | 0.00 | 39 | 1011.0 |
| 20260503191213 | 72 | 212 | 12.2 | 25.2 | 0.00 | 0.00 | 0.00 | 39 | 1011.1 |
| 20260503190716 | 72 | 213 | 13.9 | 34.8 | 0.00 | 0.00 | 0.00 | 38 | 1011.2 |
| 20260503190003 | 72 | 214 | 11.3 | 34.8 | 0.00 | 0.00 | 0.00 | 37 | 1011.4 |
| 20260503185717 | 72 | 215 | 9.6 | 29.5 | 0.00 | 0.00 | 0.00 | 38 | 1011.4 |
| 20260503185215 | 72 | 216 | 11.3 | 29.5 | 0.00 | 0.00 | 0.00 | 39 | 1011.6 |
| 20260503184503 | 72 | 225 | 10.4 | 29.5 | 0.00 | 0.00 | 0.00 | 37 | 1011.8 |
| 20260503184003 | 72 | 231 | 8.7 | 20.9 | 0.00 | 0.00 | 0.00 | 38 | 1011.8 |
| 20260503183503 | 71 | 227 | 10.4 | 34.8 | 0.00 | 0.00 | 0.00 | 38 | 1011.9 |
| 20260503183003 | 71 | 216 | 8.7 | 34.8 | 0.00 | 0.00 | 0.00 | 39 | 1012.1 |
| 20260503182503 | 70 | 214 | 9.6 | 26.9 | 0.00 | 0.00 | 0.00 | 39 | 1012.2 |
| 20260503182212 | 70 | 213 | 11.3 | 26.9 | 0.00 | 0.00 | 0.00 | 38 | 1012.1 |
| 20260503181715 | 70 | 219 | 8.7 | 26.9 | 0.00 | 0.00 | 0.00 | 40 | 1012.3 |
| 20260503181213 | 70 | 218 | 8.7 | 20.9 | 0.00 | 0.00 | 0.00 | 41 | 1012.4 |
| 20260503180503 | 70 | 213 | 8.7 | 19.1 | 0.00 | 0.00 | 0.00 | 40 | 1012.7 |
| 20260503180003 | 69 | 218 | 8.7 | 25.2 | 0.00 | 0.00 | 0.00 | 42 | 1012.9 |
| 20260503175712 | 68 | 215 | 10.4 | 30.4 | 0.00 | 0.00 | 0.00 | 40 | 1012.9 |
| 20260503175003 | 68 | 209 | 13.0 | 32.2 | 0.00 | 0.00 | 0.00 | 41 | 1013.4 |
| 20260503174713 | 68 | 213 | 12.2 | 32.2 | 0.00 | 0.00 | 0.00 | 41 | 1013.6 |
| 20260503174003 | 68 | 217 | 11.3 | 25.2 | 0.00 | 0.00 | 0.00 | 41 | 1013.7 |
| 20260503173714 | 68 | 211 | 0.0 | 25.2 | 0.00 | 0.00 | 0.00 | 40 | 1013.8 |
| 20260503173003 | 43 | 0 | 0.0 | 0.9 | 0.00 | 0.00 | 0.00 | 87 | 1013.9 |
| 20260503172715 | 43 | 0 | 0.0 | 0.9 | 0.00 | 0.00 | 0.00 | 87 | 1014.1 |
| 20260503172213 | 43 | 0 | 0.0 | 0.9 | 0.00 | 0.00 | 0.00 | 87 | 1014.4 |
| 20260503171503 | 43 | 0 | 0.0 | 0.9 | 0.00 | 0.00 | 0.00 | 87 | 1014.7 |
| 20260503171214 | 43 | 0 | 0.0 | 0.9 | 0.00 | 0.00 | 0.00 | 87 | 1014.7 |
| 20260503170503 | 43 | 0 | 0.0 | 0.9 | 0.00 | 0.00 | 0.00 | 87 | 1014.7 |